Theta_e
302 301 300 300 301 301 300 301 302 302 303 304 305 306 308 310 312 310 305 308 305 305 303 307 307 300 301 300 297 301 301 301 298 293 293 293 292 295 294 297 296 293 289 288 289 285 286 303 301 293 296 298 301 301
303 304 302 303 303 303 302 301 301 301 302 303 304 306 307 310 311 312 302 310 312 304 304 309 310 311 308 306 301 300 301 302 303 296 296 296 294 294 292 289 298 293 297 293 293 293 299 302 300 301 302 300 301 299
303 303 303 304 304 304 304 304 302 301 301 302 303 304 306 307 311 310 308 306 306 301 303 303 303 308 309 308 307 299 302 307 305 310 303 299 293 296 291 293 294 297 300 294 295 297 301 303 304 304 303 302 302 301
302 302 302 302 303 303 303 303 303 302 301 301 302 304 305 306 309 309 307 307 308 306 297 299 311 306 312 310 309 308 306 306 305 308 305 299 295 298 294 296 295 298 297 297 295 298 300 302 305 305 304 304 302 301
302 302 302 302 302 302 302 302 302 302 302 300 301 302 304 304 307 304 303 305 310 306 298 301 306 308 308 307 308 308 305 302 300 297 298 297 299 297 296 296 294 299 297 294 293 299 299 299 303 305 303 302 301 300
302 302 302 303 302 302 302 302 302 302 302 301 301 301 302 303 305 303 297 307 309 310 302 295 302 303 306 307 306 306 306 304 301 299 296 298 302 298 293 291 298 301 302 301 299 303 303 304 305 305 303 302 302 301
301 302 302 303 303 303 302 302 302 302 302 303 301 301 301 303 297 298 297 304 306 306 302 296 294 302 305 304 304 304 304 303 302 298 297 297 298 299 294 291 300 304 304 304 305 305 301 303 302 305 305 304 304 301
300 301 301 302 302 303 302 301 302 302 302 303 302 302 303 302 300 292 296 303 304 303 303 295 293 295 302 298 299 304 302 302 299 299 298 297 297 296 292 297 303 306 306 305 305 305 304 305 304 305 304 302 299 298
300 300 301 301 302 303 303 301 302 302 303 304 302 302 295 293 290 295 309 309 303 300 294 292 291 289 302 299 301 301 304 297 300 297 298 298 295 292 296 299 303 306 305 304 305 305 305 304 304 304 302 299 297 297
300 300 301 301 302 303 302 301 302 302 303 302 295 294 288 294 308 309 304 299 299 299 298 292 293 290 296 297 297 298 301 298 292 296 300 297 296 301 302 303 304 306 306 304 301 300 301 302 303 303 299 298 298 299
301 300 301 301 302 302 302 301 302 302 301 291 289 290 300 309 298 294 292 292 292 290 294 295 292 290 300 293 298 302 297 299 293 295 295 290 290 300 305 305 307 308 306 305 305 305 306 305 304 300 299 301 301 301
300 300 301 301 302 302 301 302 302 297 292 295 295 296 297 296 293 290 287 289 290 286 292 289 290 294 295 301 297 300 296 299 293 299 293 288 297 301 304 306 307 306 306 305 305 306 305 305 302 301 301 300 299 300
300 300 300 301 302 302 302 302 302 301 300 297 293 292 290 287 284 283 281 285 286 291 291 293 292 294 297 300 297 297 293 293 301 293 290 294 298 302 304 306 306 305 307 307 305 306 304 303 303 301 300 301 301 302
299 300 300 301 302 302 302 302 302 300 291 287 287 279 284 283 285 284 286 286 289 291 292 293 293 293 294 292 294 292 296 296 292 288 289 295 299 302 305 307 307 305 306 307 305 303 302 302 302 303 303 302 302 301
299 300 300 301 302 302 302 302 302 296 290 285 287 281 280 287 287 289 290 289 291 292 292 293 293 294 291 290 293 292 292 290 290 289 293 298 301 302 304 305 306 306 306 305 303 302 302 303 302 301 303 302 302 302
300 299 298 301 302 302 302 301 299 296 292 288 286 283 284 284 285 287 287 287 293 297 295 292 291 292 291 291 291 291 290 287 292 296 299 301 302 302 304 305 307 307 306 305 303 302 303 302 302 302 302 302 303 304
299 296 301 302 302 302 301 295 294 289 288 286 283 286 285 284 284 286 287 290 297 292 291 289 286 286 294 290 290 293 291 294 295 298 301 303 304 304 305 306 306 305 303 303 303 302 302 304 303 302 300 302 302 302
296 298 300 301 299 297 296 295 290 287 283 285 282 283 286 287 286 287 287 293 292 293 292 291 293 287 286 288 291 292 294 294 295 297 300 302 305 307 305 303 304 304 303 303 303 303 303 302 301 301 301 301 301 299
298 298 301 301 297 294 289 290 290 283 284 286 286 286 285 286 288 289 288 291 293 294 292 292 289 287 287 292 294 294 295 295 295 298 301 305 308 305 304 305 305 304 304 303 303 303 303 302 301 302 302 302 299 298
300 301 301 301 299 291 287 288 292 284 282 285 287 286 286 286 288 288 288 288 291 289 287 289 288 290 291 294 296 296 296 299 299 298 301 307 307 306 305 305 305 305 304 304 304 301 302 299 300 302 302 300 298 296
298 298 300 298 295 291 288 288 288 287 287 284 287 286 285 287 286 287 286 289 288 287 286 289 291 294 297 299 298 299 300 301 300 302 303 305 308 305 305 306 307 306 305 304 302 300 300 299 300 301 301 298 297 295
296 299 295 296 290 290 288 289 286 288 285 286 287 288 285 285 286 286 289 287 287 289 290 291 294 294 295 297 298 302 303 304 304 304 303 305 305 303 304 305 305 304 304 304 304 301 298 301 303 302 300 297 295 295
298 296 293 292 287 286 284 288 284 285 282 284 288 286 286 285 287 292 286 287 288 291 293 294 295 294 296 299 301 303 304 304 304 305 307 309 309 309 307 305 305 304 302 302 302 301 302 298 299 300 299 297 295 294
298 291 287 285 284 278 287 284 286 285 286 283 282 282 285 286 288 285 283 286 291 292 292 294 295 295 296 298 298 299 302 306 306 306 307 308 307 307 308 307 305 304 302 302 302 302 303 302 298 300 299 297 296 294
281 284 284 281 286 283 282 284 284 284 283 285 283 284 284 287 283 284 284 287 290 291 293 295 295 295 294 295 297 298 303 306 305 303 305 309 308 307 307 307 300 303 305 302 301 302 302 302 302 300 300 299 296 293
279 284 278 284 284 284 284 283 284 284 285 284 286 289 287 285 285 284 287 289 291 293 295 296 294 293 294 297 298 299 303 308 306 303 306 308 308 307 304 298 299 299 304 305 303 303 302 301 300 299 298 295 290 294
280 282 285 289 287 289 286 288 289 287 286 285 287 287 286 283 284 288 293 296 295 296 298 298 296 296 297 300 302 305 307 308 307 307 308 307 308 309 303 300 300 302 305 306 305 303 301 299 298 297 296 295 295 295
284 285 283 286 287 288 286 287 286 287 287 290 289 285 286 286 286 292 297 298 298 298 299 299 301 303 302 304 305 306 306 307 307 307 305 304 304 303 302 301 298 292 301 306 305 303 302 300 298 297 296 295 295 296
285 289 289 287 289 289 288 286 286 289 293 292 288 286 289 293 294 296 300 302 303 302 300 300 303 305 305 306 306 306 306 306 303 299 298 297 299 301 304 304 303 302 300 297 289 298 302 301 299 298 298 296 296 297
286 291 287 286 287 286 287 291 290 292 293 294 293 293 295 296 299 300 301 302 301 299 301 301 302 303 302 302 302 303 306 306 305 302 299 298 300 304 304 303 302 301 301 300 298 295 290 297 294 298 297 296 296 298
291 291 287 285 285 288 292 294 295 293 293 292 293 290 291 294 297 299 300 302 303 303 302 302 302 303 302 302 301 301 300 305 306 305 306 306 306 305 304 303 303 302 301 300 299 298 297 296 296 295 296 298 295 295
288 288 286 286 286 289 292 291 291 290 286 285 286 289 289 289 289 294 299 302 300 300 296 301 301 302 305 306 305 303 295 304 306 308 307 307 305 306 305 305 304 302 300 299 298 298 297 296 296 295 295 296 295 294
290 289 289 287 286 287 290 290 288 285 289 289 288 286 289 289 286 294 301 301 299 299 300 302 304 305 306 305 303 301 297 298 292 288 288 288 292 298 303 302 302 301 300 299 298 298 297 297 296 298 298 297 294 294
Wind_Speed
8 7 5 5 5 4 4 5 7 8 10 12 12 12 13 13 14 5 4 2 2 2 6 3 3 1 5 3 1 5 4 5 3 3 4 4 4 6 4 6 8 9 8 5 3 3 8 8 3 8 9 4 6 5
8 8 9 7 5 5 6 4 4 6 8 10 12 12 11 12 11 9 2 4 3 3 6 3 9 11 10 13 3 3 3 3 4 2 1 2 2 1 4 5 2 2 9 8 10 10 7 8 7 6 8 6 5 7
5 3 2 4 6 7 7 6 5 6 6 8 11 12 12 11 11 8 3 4 3 2 6 1 8 6 4 9 4 4 4 4 2 3 2 3 3 4 2 5 1 3 4 3 5 3 5 7 4 6 6 6 6 6
5 5 4 4 4 4 3 3 5 6 5 6 8 10 11 12 11 9 2 2 1 3 3 6 4 6 10 9 9 9 11 1 3 2 1 2 3 4 4 4 4 6 2 3 3 5 3 5 7 9 9 8 10 7
7 7 6 5 5 5 4 4 6 6 7 5 7 9 11 11 14 5 3 3 2 2 3 6 15 20 10 6 10 8 8 5 3 1 2 4 3 2 2 2 3 3 6 4 7 8 6 6 5 7 9 9 9 8
6 6 6 6 5 5 5 5 6 7 9 5 5 7 8 11 13 3 2 0 3 1 3 4 5 7 19 13 8 7 7 4 4 5 5 4 5 4 4 5 7 6 4 8 6 6 8 7 9 7 9 10 7 8
6 6 6 9 8 6 6 6 6 7 9 10 4 6 7 7 2 3 3 1 3 4 2 5 6 6 8 7 4 2 3 4 5 4 3 4 4 1 3 7 7 6 8 7 5 7 4 4 7 9 11 9 7 8
7 7 6 6 6 7 7 6 6 7 8 8 6 6 8 8 7 5 4 11 5 2 2 4 6 6 4 3 2 3 3 2 1 5 1 3 2 4 7 8 10 10 10 8 9 8 9 9 8 10 7 9 9 8
8 7 7 8 9 8 7 6 6 6 7 6 6 11 4 1 2 4 2 8 1 2 3 2 2 4 5 3 2 1 3 3 3 5 6 5 5 7 8 11 11 12 12 10 8 6 8 11 15 11 10 10 10 7
8 8 7 8 8 6 7 6 6 5 7 5 2 1 2 4 6 10 0 2 1 2 3 3 2 5 4 4 4 4 1 5 4 7 4 8 11 12 10 10 9 11 12 9 7 4 5 6 13 9 11 8 9 8
8 9 8 8 7 6 7 7 6 4 2 1 1 3 3 4 2 0 4 4 3 3 3 3 7 6 3 2 2 1 4 3 3 5 7 5 5 15 18 18 14 8 9 10 10 8 15 16 11 13 10 10 10 9
8 8 7 7 9 8 8 8 6 2 3 3 3 3 3 1 2 4 4 2 3 4 4 5 5 7 4 2 4 1 4 3 6 3 4 6 10 9 15 18 19 12 10 9 8 10 11 10 16 15 13 11 9 8
9 9 8 8 8 10 9 8 7 7 6 3 1 3 3 3 6 6 6 4 4 4 5 4 3 4 2 1 2 3 5 5 6 3 6 5 4 8 10 10 11 10 13 12 9 8 14 17 16 16 13 10 9 8
10 10 9 10 10 10 11 10 8 3 2 1 3 4 6 6 5 6 6 6 6 5 4 2 3 4 3 3 4 5 4 3 4 5 6 4 6 8 6 7 7 9 11 13 12 18 20 20 15 13 13 11 10 8
11 10 11 11 11 11 12 11 10 2 3 3 2 6 6 5 4 4 4 3 5 3 2 4 4 4 3 3 4 4 5 6 7 6 5 5 9 6 5 5 7 8 10 10 17 17 18 17 15 11 11 10 9 8
10 9 7 12 13 14 12 8 5 2 2 4 5 3 5 2 5 4 3 6 3 3 0 2 3 3 5 4 4 8 4 6 3 5 6 7 8 7 7 6 5 6 9 14 17 17 16 15 14 14 10 8 8 9
7 3 4 12 14 12 13 4 2 4 5 5 5 5 5 4 6 5 4 4 4 4 2 1 4 7 1 3 4 4 2 6 10 11 11 15 10 8 7 5 7 10 12 15 16 15 14 13 13 10 9 6 7 7
4 4 3 8 10 7 2 2 3 4 7 6 4 4 4 4 4 6 3 3 1 1 2 3 0 2 5 5 3 2 7 8 6 10 12 18 20 11 6 8 9 12 14 16 16 16 16 14 11 7 9 8 10 8
4 5 7 15 7 4 3 5 4 4 7 4 4 5 4 5 6 6 4 4 4 3 4 3 4 4 4 4 5 4 7 3 8 13 15 22 11 6 6 9 13 14 15 15 15 11 9 10 8 8 8 8 8 5
2 3 9 18 8 2 3 3 3 4 4 6 4 6 6 5 6 6 8 5 4 3 4 5 5 4 4 4 4 4 4 3 6 10 14 13 7 5 7 11 9 12 10 11 9 9 8 6 7 9 8 9 9 6
5 2 11 10 2 2 2 2 3 4 4 3 2 1 5 3 5 6 6 4 5 7 5 5 5 7 7 8 4 4 6 3 4 6 13 11 8 3 6 8 12 8 9 7 8 7 9 6 7 8 9 7 6 5
3 8 3 3 1 4 4 4 4 3 2 4 3 5 6 6 6 5 4 5 7 8 5 5 8 4 5 8 6 8 10 7 6 6 12 10 3 1 5 6 9 7 7 8 8 7 5 8 9 8 9 7 6 6
6 3 2 3 3 3 6 2 4 5 5 4 3 4 5 4 5 4 4 6 7 6 6 9 12 8 12 8 5 5 6 7 4 7 8 6 2 5 5 3 5 8 5 3 6 7 9 11 11 10 9 8 7 5
3 4 4 4 5 5 4 5 4 4 4 4 3 5 4 5 2 4 6 6 7 4 6 12 7 5 2 3 3 4 5 4 5 5 4 1 2 4 2 5 2 4 5 7 8 10 10 9 10 9 8 8 6 5
4 4 4 6 4 4 6 5 7 5 5 5 4 4 4 1 2 4 5 5 8 9 9 5 5 5 4 3 3 5 6 6 5 6 3 4 6 4 7 6 3 6 9 9 9 11 10 9 8 9 9 9 9 7
4 6 8 6 5 5 5 4 3 4 4 5 5 4 1 2 4 6 4 4 6 5 6 8 6 4 3 5 4 3 3 2 4 3 1 2 6 9 6 5 8 3 3 9 11 13 12 9 9 10 9 8 8 8
4 6 6 5 4 2 3 4 1 3 5 6 3 4 3 6 6 4 4 4 2 1 3 4 4 5 5 4 3 3 1 1 4 1 2 2 6 10 7 8 8 3 5 10 12 13 13 12 11 10 8 6 6 6
6 4 5 4 3 3 7 5 4 4 4 2 3 4 2 1 2 2 4 1 1 3 4 3 3 4 4 4 4 4 2 3 6 5 5 6 7 8 11 8 8 13 7 8 10 10 11 11 11 10 9 8 5 5
4 4 4 8 6 1 2 3 3 4 3 2 1 2 2 2 3 5 3 1 3 2 3 2 3 4 4 4 4 4 4 2 1 11 12 8 8 4 7 10 7 7 7 8 8 9 13 11 10 9 9 7 5 5
4 2 0 4 5 4 4 4 3 4 3 2 1 1 1 2 5 7 8 4 0 3 2 3 2 4 5 6 6 7 1 4 3 3 7 8 7 8 7 8 8 7 7 9 9 8 9 10 8 6 6 5 4 5
3 5 4 2 1 2 2 1 2 4 4 4 4 2 3 4 4 9 11 9 7 4 3 5 6 6 6 7 8 8 4 5 6 2 11 8 10 9 8 8 8 7 7 7 7 7 7 6 6 7 7 8 7 6
5 6 5 3 2 2 1 1 0 1 3 4 5 4 5 6 6 9 9 7 8 9 11 6 3 1 4 4 2 2 4 2 4 8 9 8 7 8 9 9 8 7 8 8 6 6 8 8 6 6 6 8 8 7
3 4 4 3 1 2 4 2 1 2 4 4 4 4 4 3 2 4 4 9 8 9 8 5 4 3 8 8 8 5 6 6 8 8 9 7 8 9 7 6 7 8 9 7 6 7 7 8 7 8 11 9 7 7
Wind_Direction
249 239 250 252 258 269 306 335 352 359 3 3 2 2 1 358 354 3 280 297 74 273 283 266 337 12 354 9 20 292 19 345 44 92 134 218 184 236 194 198 182 165 154 200 130 196 275 167 128 159 210 198 181 153
254 241 229 226 241 257 269 281 324 349 354 358 357 358 360 356 353 354 304 323 312 198 247 235 237 231 197 221 190 308 202 258 211 97 230 106 255 323 187 257 133 148 181 183 169 210 227 194 186 195 161 162 166 148
248 241 197 247 257 245 263 270 285 323 343 350 354 355 356 354 2 1 295 301 341 313 297 220 253 278 204 216 177 173 275 207 44 185 184 226 219 125 188 243 232 305 159 168 68 271 207 206 230 152 152 140 154 127
236 241 240 252 263 250 285 309 289 292 318 334 344 350 353 347 345 355 301 297 276 287 261 280 360 305 290 289 211 209 229 9 129 103 246 226 188 160 210 207 160 215 47 152 246 263 118 322 199 154 140 129 124 141
238 239 236 243 254 260 266 288 285 296 304 314 333 341 350 340 337 318 240 258 270 269 291 305 306 281 272 263 258 201 167 142 132 72 192 232 228 114 265 83 231 176 202 157 229 221 178 218 190 151 137 146 152 144
251 253 254 249 246 258 262 266 278 301 286 288 308 331 331 339 339 307 344 56 25 349 282 287 282 291 293 280 291 204 163 141 149 156 212 253 245 135 193 217 244 212 190 178 224 229 205 168 168 157 138 155 168 143
250 265 251 257 248 247 258 261 271 291 297 311 247 298 316 319 344 228 236 233 2 328 252 280 277 263 256 233 180 202 139 172 144 182 206 206 282 107 187 220 233 214 210 197 180 110 61 165 187 165 148 171 128 117
242 251 266 265 274 260 245 255 267 286 300 304 241 289 304 296 300 298 257 237 155 253 256 260 266 330 336 273 191 180 158 115 240 188 158 187 301 188 236 231 224 215 236 231 190 200 191 182 138 152 145 129 123 133
230 245 259 262 271 266 223 245 258 279 303 290 290 298 340 97 216 241 95 117 70 197 236 250 280 271 350 319 284 40 140 200 213 191 209 150 216 233 219 205 218 213 199 208 222 216 179 167 166 162 139 147 136 147
242 250 255 257 271 226 215 236 246 274 304 287 6 221 269 232 152 128 195 155 217 238 243 235 286 266 20 6 326 339 219 219 230 233 148 221 233 233 232 232 236 227 198 182 179 181 172 165 169 156 163 154 142 146
240 244 255 249 254 221 215 229 233 271 4 21 229 240 285 225 81 257 227 184 181 244 230 221 203 234 260 224 265 335 304 286 273 240 169 239 243 226 229 237 238 210 208 197 180 183 184 178 165 138 142 141 139 149
249 253 257 262 240 229 218 220 207 141 194 224 233 265 285 267 205 199 221 247 202 240 222 216 225 204 253 158 127 215 240 273 247 252 183 245 238 233 217 224 234 213 198 205 186 190 181 150 144 143 142 143 149 146
243 249 259 256 259 226 214 211 200 215 339 324 262 245 175 235 218 209 202 193 200 203 235 214 245 156 311 146 125 138 270 251 318 287 256 226 251 226 220 220 219 208 202 201 194 143 134 136 137 141 142 145 140 141
250 252 252 255 248 233 205 203 207 177 113 188 236 262 211 199 228 198 201 193 219 221 272 208 265 194 198 140 190 196 187 280 257 274 264 265 238 236 222 225 193 202 190 192 152 146 143 142 145 145 145 145 141 145
248 250 255 249 246 216 195 191 193 148 134 212 239 238 224 242 248 241 244 271 259 235 265 297 253 166 210 226 203 197 197 198 228 238 262 247 256 245 249 208 208 203 184 163 149 148 146 144 146 140 144 145 139 134
236 262 237 232 214 187 184 179 169 72 236 219 239 255 271 251 274 275 260 264 250 257 141 355 183 165 242 234 168 211 235 234 281 323 304 317 278 247 231 216 208 171 152 148 150 147 142 141 141 143 142 140 143 144
215 240 201 176 167 169 163 101 102 204 218 224 236 217 258 267 242 255 228 273 306 10 223 71 213 202 232 231 247 246 338 327 316 311 304 305 301 286 237 195 147 136 133 134 134 136 133 133 131 126 133 145 131 122
218 185 238 181 143 130 70 145 196 222 229 236 251 236 205 218 253 276 243 253 104 315 236 192 154 249 232 214 198 38 308 300 276 296 313 305 306 266 195 145 139 135 128 128 128 131 132 138 139 148 130 116 110 112
177 183 209 165 130 110 160 183 196 236 233 236 226 232 232 244 236 252 244 243 219 177 123 178 228 212 234 223 222 252 258 296 309 318 311 303 290 180 146 131 133 129 126 129 131 137 144 147 141 130 127 131 129 134
145 276 187 151 133 109 233 212 204 229 235 217 212 230 226 226 236 232 246 236 203 198 172 209 209 229 218 231 200 230 228 258 315 319 314 330 304 128 145 133 124 121 115 114 111 113 114 97 103 124 129 131 133 139
117 153 146 150 96 126 265 272 243 231 253 235 259 313 250 241 227 232 233 196 201 215 214 203 213 234 239 254 236 229 254 216 282 306 296 295 302 247 125 130 118 119 124 128 127 133 133 132 124 131 126 122 125 134
174 141 103 95 157 180 243 217 238 260 222 238 251 184 233 240 232 230 199 199 229 224 185 205 233 218 240 249 239 229 241 248 240 284 294 266 300 258 97 132 117 140 139 144 147 146 109 122 130 126 126 123 116 115
107 109 131 149 194 236 251 192 212 220 223 241 211 208 256 257 222 138 220 223 225 199 198 220 236 218 236 243 227 241 218 225 261 263 275 256 307 17 41 349 154 145 136 107 115 119 127 128 121 122 120 119 122 121
178 168 177 196 197 253 236 217 210 239 230 215 227 232 251 227 238 187 232 217 228 195 205 226 212 213 190 210 207 218 249 223 244 250 253 94 12 302 329 329 219 128 133 133 124 124 130 129 127 130 132 129 131 129
104 208 190 226 228 230 240 227 201 219 233 215 228 248 273 285 252 245 230 238 221 224 221 194 181 164 175 217 240 244 243 209 211 217 204 183 167 175 247 293 268 135 131 117 119 124 133 139 139 142 143 142 144 143
206 210 184 218 215 208 221 251 232 248 257 219 224 244 356 265 244 249 248 243 215 190 180 179 169 165 202 206 218 222 240 244 162 186 176 199 176 183 208 195 121 58 123 130 128 132 140 139 138 129 124 129 133 133
245 242 219 222 257 132 338 298 230 241 234 212 202 174 207 224 235 271 316 329 2 44 109 135 158 179 202 192 183 145 116 180 211 142 221 250 215 226 196 140 118 133 111 120 132 133 134 134 131 129 127 127 144 151
229 265 238 256 279 252 276 254 246 252 269 339 172 201 286 314 275 300 284 305 357 86 86 89 154 156 168 173 134 133 74 2 346 316 63 54 68 97 89 83 76 81 83 116 120 127 131 131 133 137 140 145 155 167
232 227 222 271 270 273 237 235 256 238 239 295 132 216 241 240 239 226 253 188 115 83 133 137 122 113 102 102 103 95 69 18 349 129 115 116 99 58 87 83 90 83 87 85 65 113 131 133 139 145 148 151 169 174
244 157 313 288 252 218 232 205 267 285 286 266 186 358 186 242 11 15 19 14 184 210 172 153 150 121 113 115 106 98 6 275 119 208 146 136 132 116 111 107 98 94 94 96 101 100 93 102 105 108 109 107 112 120
269 173 221 225 233 256 260 271 299 351 5 5 8 60 340 329 352 8 7 358 54 43 60 113 114 111 104 101 113 127 178 278 282 156 128 123 126 122 127 127 120 113 111 109 109 112 111 105 113 116 121 127 127 123
186 201 170 161 237 246 31 296 166 20 338 27 343 7 10 21 25 353 342 11 19 26 40 40 57 281 239 198 198 100 84 82 100 78 89 110 115 123 127 123 118 123 124 122 120 121 127 129 132 131 131 127 128 134
150 129 123 125 72 179 228 174 123 45 11 19 6 2 35 56 24 341 339 16 0 5 8 348 329 1 75 86 84 75 70 80 85 80 72 72 110 125 126 117 124 127 121 123 123 129 136 137 131 129 130 133 126 118